Вернуться в каталог

CZ-6A DEB

АктивенPO
NORAD 54927·DEBRIS·🇨🇳 China

Запущен Nov 11, 2022 с Taiyuan Satellite Launch Center

Loading…

Ближайшие Пролёты (ближайшие 24 часа)

TLE

СвежийSource: Space-Track

Эпоха: Sep 14, 2026, 05:12 UTC

1 54927U 22151RQ  26257.21690455  .00009336  00000-0  11569-2 0  9997
2 54927  98.6347 337.9047 0059537 339.4501  20.4315 14.81674115203438

Отслеживайте CZ-6A DEB в реальном времени с AllMySat

Download on the App Store